Total_Precipitation_Accumulation
0.23 0.29 0.45 0.38 0.22 0.20 0.34 0.27 0.26 0.15 0.16 0.19 0.19 0.24 0.25 0.23 0.20 0.18 0.17 0.19 0.21 0.22 0.22 0.23 0.24 0.24 0.24 0.26 0.33 0.37 0.38 0.37 0.36 0.37 0.39 0.41 0.43 0.43 0.42 0.43 0.43 0.46 0.53 0.60
0.30 0.28 0.38 0.31 0.15 0.13 0.15 0.12 0.13 0.11 0.15 0.15 0.19 0.24 0.27 0.25 0.19 0.14 0.13 0.14 0.15 0.16 0.18 0.18 0.19 0.22 0.25 0.30 0.38 0.43 0.46 0.42 0.38 0.37 0.36 0.34 0.33 0.34 0.34 0.35 0.36 0.39 0.44 0.48
0.49 0.24 0.28 0.25 0.14 0.13 0.12 0.09 0.09 0.14 0.14 0.13 0.21 0.25 0.23 0.18 0.12 0.10 0.10 0.11 0.12 0.12 0.14 0.17 0.20 0.27 0.34 0.38 0.45 0.47 0.50 0.46 0.40 0.37 0.35 0.32 0.30 0.30 0.32 0.34 0.37 0.40 0.43 0.47
0.61 0.38 0.38 0.24 0.17 0.15 0.12 0.09 0.07 0.08 0.07 0.09 0.13 0.15 0.13 0.10 0.09 0.07 0.06 0.06 0.07 0.09 0.10 0.12 0.17 0.26 0.33 0.39 0.50 0.52 0.52 0.50 0.48 0.47 0.48 0.50 0.49 0.51 0.51 0.50 0.52 0.56 0.61 0.64
0.44 0.33 0.18 0.09 0.10 0.12 0.13 0.10 0.05 0.05 0.05 0.04 0.06 0.12 0.17 0.14 0.10 0.07 0.05 0.04 0.04 0.05 0.06 0.07 0.10 0.16 0.24 0.37 0.52 0.63 0.69 0.67 0.67 0.70 0.74 0.78 0.80 0.80 0.79 0.80 0.80 0.78 0.75 0.71
0.30 0.25 0.10 0.04 0.02 0.03 0.05 0.09 0.03 0.02 0.02 0.02 0.04 0.10 0.16 0.17 0.13 0.11 0.09 0.07 0.06 0.06 0.07 0.10 0.13 0.18 0.31 0.47 0.62 0.72 0.75 0.79 0.82 0.87 0.93 0.91 0.89 0.85 0.78 0.72 0.72 0.70 0.69 0.66
0.24 0.22 0.04 0.01 0.00 0.01 0.06 0.08 0.02 0.01 0.01 0.01 0.02 0.05 0.06 0.11 0.15 0.15 0.15 0.17 0.17 0.18 0.21 0.23 0.25 0.34 0.48 0.58 0.67 0.70 0.70 0.72 0.74 0.73 0.74 0.72 0.70 0.65 0.60 0.54 0.49 0.45 0.41 0.38
0.11 0.17 0.07 0.01 0.01 0.03 0.04 0.02 0.01 0.01 0.01 0.02 0.02 0.02 0.03 0.04 0.08 0.12 0.16 0.22 0.29 0.34 0.37 0.37 0.40 0.46 0.53 0.54 0.54 0.52 0.50 0.48 0.45 0.40 0.37 0.36 0.37 0.38 0.35 0.33 0.29 0.25 0.22 0.21
0.06 0.08 0.04 0.02 0.02 0.02 0.02 0.02 0.02 0.02 0.02 0.02 0.02 0.02 0.02 0.02 0.03 0.05 0.07 0.09 0.14 0.20 0.24 0.25 0.25 0.27 0.29 0.26 0.23 0.20 0.16 0.15 0.13 0.11 0.10 0.10 0.11 0.12 0.14 0.17 0.16 0.16 0.15 0.15
0.05 0.04 0.02 0.02 0.02 0.02 0.02 0.03 0.03 0.03 0.03 0.03 0.04 0.03 0.03 0.02 0.02 0.03 0.03 0.03 0.04 0.06 0.07 0.07 0.08 0.08 0.09 0.07 0.05 0.04 0.03 0.03 0.03 0.03 0.04 0.05 0.06 0.07 0.08 0.09 0.11 0.13 0.14 0.14
0.05 0.03 0.02 0.02 0.02 0.02 0.02 0.02 0.02 0.02 0.02 0.03 0.04 0.05 0.04 0.04 0.04 0.03 0.03 0.03 0.04 0.04 0.04 0.04 0.04 0.05 0.05 0.05 0.04 0.04 0.03 0.03 0.03 0.04 0.05 0.05 0.05 0.06 0.08 0.09 0.11 0.14 0.16 0.17
0.08 0.03 0.04 0.03 0.01 0.01 0.01 0.01 0.02 0.02 0.03 0.03 0.03 0.04 0.04 0.04 0.04 0.04 0.05 0.04 0.04 0.04 0.05 0.06 0.06 0.07 0.07 0.08 0.08 0.07 0.07 0.07 0.07 0.07 0.08 0.08 0.09 0.09 0.11 0.12 0.14 0.16 0.17 0.18
0.04 0.03 0.03 0.02 0.01 0.01 0.01 0.02 0.03 0.02 0.02 0.02 0.02 0.02 0.02 0.04 0.04 0.04 0.05 0.06 0.06 0.06 0.07 0.07 0.07 0.07 0.08 0.10 0.11 0.12 0.13 0.14 0.14 0.14 0.14 0.14 0.14 0.14 0.15 0.16 0.18 0.18 0.18 0.19
0.02 0.02 0.03 0.02 0.01 0.01 0.01 0.02 0.02 0.02 0.02 0.02 0.02 0.01 0.01 0.02 0.03 0.04 0.06 0.06 0.06 0.06 0.07 0.07 0.07 0.07 0.08 0.09 0.11 0.12 0.14 0.18 0.20 0.20 0.21 0.22 0.22 0.22 0.22 0.23 0.22 0.20 0.21 0.24
0.02 0.03 0.04 0.04 0.04 0.03 0.03 0.03 0.03 0.04 0.04 0.03 0.03 0.03 0.03 0.02 0.03 0.03 0.04 0.05 0.05 0.06 0.06 0.06 0.06 0.07 0.08 0.09 0.11 0.12 0.13 0.15 0.19 0.21 0.24 0.26 0.26 0.27 0.27 0.25 0.24 0.21 0.21 0.25
0.05 0.04 0.04 0.05 0.07 0.07 0.06 0.05 0.05 0.05 0.05 0.04 0.05 0.05 0.04 0.03 0.03 0.03 0.03 0.03 0.05 0.05 0.06 0.07 0.08 0.08 0.09 0.10 0.12 0.13 0.14 0.19 0.21 0.22 0.23 0.26 0.28 0.28 0.27 0.26 0.24 0.22 0.21 0.21
0.12 0.10 0.10 0.10 0.09 0.10 0.09 0.08 0.07 0.06 0.06 0.06 0.05 0.05 0.04 0.04 0.03 0.03 0.04 0.04 0.04 0.05 0.06 0.08 0.09 0.10 0.11 0.11 0.14 0.15 0.16 0.20 0.26 0.24 0.22 0.24 0.27 0.29 0.28 0.27 0.26 0.24 0.21 0.24
0.14 0.15 0.16 0.18 0.19 0.17 0.15 0.13 0.11 0.09 0.08 0.08 0.07 0.06 0.06 0.05 0.05 0.05 0.05 0.05 0.06 0.06 0.07 0.08 0.09 0.10 0.10 0.12 0.15 0.18 0.19 0.21 0.23 0.24 0.25 0.28 0.31 0.32 0.32 0.32 0.30 0.29 0.27 0.31
0.14 0.15 0.15 0.17 0.19 0.20 0.18 0.17 0.15 0.14 0.12 0.10 0.09 0.09 0.08 0.07 0.07 0.06 0.06 0.07 0.08 0.08 0.08 0.08 0.12 0.12 0.11 0.13 0.19 0.20 0.21 0.22 0.24 0.26 0.29 0.34 0.37 0.33 0.34 0.35 0.35 0.35 0.35 0.36
0.16 0.16 0.16 0.18 0.19 0.20 0.20 0.19 0.18 0.17 0.16 0.15 0.13 0.12 0.11 0.10 0.10 0.10 0.09 0.09 0.10 0.11 0.11 0.12 0.14 0.13 0.13 0.15 0.21 0.22 0.22 0.24 0.27 0.28 0.30 0.33 0.34 0.34 0.34 0.35 0.37 0.38 0.38 0.38
0.19 0.18 0.17 0.18 0.20 0.21 0.20 0.20 0.20 0.21 0.20 0.19 0.18 0.16 0.15 0.14 0.14 0.15 0.14 0.13 0.11 0.12 0.13 0.15 0.15 0.15 0.19 0.24 0.27 0.25 0.26 0.28 0.29 0.31 0.33 0.34 0.34 0.34 0.34 0.35 0.36 0.36 0.37 0.37
0.19 0.19 0.18 0.18 0.21 0.23 0.22 0.21 0.20 0.21 0.20 0.19 0.19 0.18 0.17 0.16 0.15 0.14 0.14 0.15 0.14 0.16 0.18 0.15 0.16 0.22 0.28 0.31 0.28 0.27 0.29 0.31 0.33 0.35 0.35 0.35 0.35 0.35 0.34 0.35 0.36 0.35 0.36 0.37
0.18 0.18 0.17 0.16 0.16 0.16 0.16 0.17 0.17 0.18 0.19 0.20 0.20 0.20 0.19 0.17 0.16 0.17 0.17 0.15 0.15 0.18 0.19 0.18 0.23 0.30 0.33 0.32 0.29 0.32 0.35 0.36 0.37 0.37 0.37 0.37 0.38 0.39 0.38 0.37 0.37 0.36 0.37 0.36
0.12 0.12 0.12 0.12 0.12 0.12 0.13 0.14 0.14 0.15 0.16 0.16 0.16 0.15 0.16 0.15 0.14 0.13 0.14 0.15 0.18 0.21 0.21 0.21 0.26 0.29 0.30 0.29 0.31 0.35 0.38 0.38 0.38 0.38 0.38 0.38 0.37 0.38 0.37 0.36 0.35 0.33 0.33 0.33
0.09 0.08 0.08 0.08 0.08 0.08 0.08 0.08 0.09 0.11 0.12 0.13 0.12 0.12 0.12 0.14 0.15 0.15 0.14 0.14 0.16 0.19 0.19 0.21 0.24 0.26 0.27 0.28 0.31 0.34 0.35 0.37 0.39 0.40 0.39 0.38 0.37 0.36 0.35 0.34 0.35 0.34 0.32 0.32
0.08 0.07 0.07 0.06 0.06 0.06 0.06 0.06 0.06 0.07 0.08 0.11 0.11 0.12 0.13 0.15 0.15 0.15 0.15 0.15 0.16 0.19 0.20 0.19 0.21 0.23 0.25 0.26 0.29 0.30 0.30 0.31 0.33 0.33 0.33 0.34 0.34 0.33 0.32 0.31 0.31 0.32 0.31 0.31
0.05 0.05 0.04 0.04 0.04 0.05 0.05 0.05 0.06 0.06 0.07 0.08 0.11 0.11 0.13 0.14 0.15 0.15 0.15 0.16 0.17 0.18 0.18 0.18 0.20 0.22 0.23 0.24 0.25 0.25 0.25 0.26 0.27 0.28 0.29 0.29 0.29 0.29 0.28 0.28 0.29 0.29 0.30 0.29